Theta_e
317 314 319 325 319 314 317 319 318 320 321 323 324 322 325 333 340 338 340 327 325 324 323 322 321 320 322 323 323 322 321 321 320 320 320 320 320 319 319 319 319 319 319 319 319 319 319 319 320
316 314 323 323 316 316 315 317 320 319 321 322 323 324 327 338 340 340 334 326 325 325 325 324 323 322 323 323 324 323 323 323 322 322 321 321 320 320 320 320 320 320 319 319 319 319 319 319 320
315 317 322 318 315 317 316 318 319 319 321 321 321 323 327 339 340 340 330 327 325 325 325 325 324 323 323 323 323 323 323 323 323 322 322 321 321 320 320 321 320 320 320 320 319 319 319 319 320
326 324 323 320 320 319 318 318 317 318 322 322 322 322 338 339 339 339 330 327 326 325 325 325 325 324 323 324 324 324 324 324 323 323 322 322 321 321 321 321 321 321 321 320 320 319 319 319 320
327 325 323 320 320 319 319 320 320 318 319 322 324 323 336 339 339 339 333 326 326 326 326 325 326 324 324 324 325 325 325 324 323 323 322 322 321 321 321 321 321 321 320 321 321 320 320 320 320
330 323 321 323 322 322 320 322 321 319 322 324 322 325 338 338 339 338 335 327 326 326 326 326 325 324 323 324 325 325 325 324 324 323 322 322 321 320 320 320 320 320 320 320 321 321 320 320 320
326 320 322 321 323 322 322 323 324 323 322 323 327 325 336 338 338 337 334 326 326 326 326 325 325 324 323 324 325 325 325 325 324 323 322 322 321 321 320 319 319 319 319 319 320 320 320 320 320
323 323 327 323 324 324 326 327 326 325 326 327 326 326 335 338 338 338 334 326 325 325 325 325 325 324 323 323 324 325 325 324 323 323 322 321 320 320 319 319 319 318 318 318 319 319 320 320 320
320 319 326 327 326 325 326 326 327 326 326 326 327 327 328 337 339 337 330 325 325 325 325 324 324 323 322 322 322 323 323 323 322 322 321 320 320 320 320 319 319 318 318 318 318 318 318 319 320
317 317 321 325 326 327 326 324 324 324 324 325 326 327 327 335 343 338 328 325 325 325 326 325 324 322 322 322 322 322 322 323 324 324 324 323 322 321 320 320 319 318 317 317 317 317 317 317 318
314 317 320 321 321 322 321 322 322 321 322 324 324 324 325 328 339 342 332 326 326 326 325 325 325 324 323 323 324 323 324 324 325 325 323 324 323 322 322 321 319 318 317 317 316 316 316 316 316
311 313 315 317 317 318 319 320 320 321 321 322 323 323 324 326 327 333 339 332 326 325 326 326 326 326 325 324 324 324 324 325 326 326 325 324 324 324 323 322 320 319 318 317 317 316 315 315 315
311 311 312 313 313 314 315 318 318 318 319 319 320 321 322 323 326 327 330 330 336 327 326 326 326 326 326 326 326 325 325 326 327 326 325 325 324 325 326 327 326 324 322 323 326 321 318 317 318
310 310 310 311 312 312 313 314 315 317 317 318 318 319 320 321 324 327 328 331 333 336 331 327 326 327 327 327 326 326 326 327 326 325 325 325 328 330 332 333 334 333 333 336 337 333 329 326 327
311 309 309 311 312 312 315 314 315 316 317 317 318 318 318 319 322 325 327 327 328 335 336 337 329 328 328 328 327 326 326 326 327 330 331 332 333 333 334 335 336 336 340 340 340 339 336 332 332
309 307 308 309 311 312 314 315 315 314 315 315 314 316 316 318 319 321 323 327 328 328 335 336 337 338 335 330 329 330 329 334 339 338 335 330 329 331 333 334 336 338 342 342 342 341 339 335 334
306 308 309 310 310 310 312 310 311 313 313 313 313 313 313 314 315 317 320 322 325 327 332 337 338 339 339 338 333 335 339 340 340 338 334 333 333 331 329 331 336 339 342 343 344 343 341 337 335
310 310 309 309 311 311 310 310 311 312 312 313 313 313 313 313 314 314 315 318 323 324 327 330 333 336 338 339 338 339 339 338 340 337 335 333 331 330 328 330 333 337 340 343 344 343 342 339 336
310 310 309 309 310 309 309 310 310 311 311 311 312 312 312 313 313 314 314 315 317 322 327 327 328 333 339 341 340 338 337 337 337 335 335 331 330 329 328 331 334 334 334 340 344 344 342 340 337
308 308 309 309 311 311 309 310 310 310 310 311 311 312 312 312 312 313 313 314 315 317 320 326 328 329 335 338 338 337 336 335 333 335 334 331 333 331 331 333 332 329 333 339 343 344 343 341 338
310 311 311 311 311 310 309 310 309 310 310 311 311 312 312 312 312 311 312 312 314 315 316 319 325 327 333 336 335 334 335 335 336 334 331 331 333 332 331 326 329 331 335 338 343 344 343 342 339
310 311 311 310 310 309 310 310 309 309 309 309 310 311 312 312 312 312 312 312 313 314 316 316 320 326 328 329 332 334 334 334 333 332 331 332 332 329 327 329 336 334 339 341 344 345 343 342 339
310 311 309 310 309 309 310 309 309 309 309 308 309 310 311 312 313 313 314 314 314 313 315 316 318 324 329 328 330 333 334 334 332 332 332 332 328 326 325 324 334 339 341 343 345 344 344 341 339
310 309 307 307 307 309 309 309 309 307 308 308 309 311 314 314 314 315 315 315 315 314 314 316 316 319 325 327 328 332 333 332 332 333 332 327 326 324 323 324 330 342 343 343 344 344 341 341 340
307 306 305 307 308 311 308 309 308 309 309 309 313 314 314 313 313 313 314 315 315 315 315 315 316 318 323 325 325 330 334 333 333 333 328 326 325 324 324 324 332 342 343 344 344 340 340 341 339
308 306 306 311 311 308 308 309 308 309 313 314 314 314 313 312 312 312 312 313 316 315 315 315 316 317 322 326 327 332 333 334 332 329 327 326 325 324 324 328 339 344 344 345 341 340 341 341 339
308 308 306 308 308 309 309 309 308 309 314 313 313 313 312 312 312 312 312 312 319 318 317 316 316 318 323 326 330 331 331 328 328 327 324 324 327 325 326 337 344 345 345 340 341 341 339 339 339
306 307 310 306 312 313 310 310 310 310 310 311 312 312 311 313 313 313 314 314 318 320 325 320 319 320 323 329 329 329 329 328 325 324 324 325 328 327 329 344 345 346 343 340 340 341 339 338 338
307 308 310 308 306 308 311 312 310 310 311 312 311 312 312 314 314 315 316 317 316 321 331 331 324 321 322 325 328 328 327 324 324 324 325 326 329 328 331 344 346 345 341 340 339 340 339 339 335
307 308 309 308 308 311 315 313 310 308 310 310 311 311 313 314 314 315 315 317 317 321 326 333 336 323 320 323 325 326 324 324 325 324 325 329 332 330 335 346 346 343 339 339 339 340 338 334 332
Wind_Speed
6 3 4 1 2 4 3 7 2 7 8 3 31 11 11 20 9 6 13 39 37 39 37 34 33 33 32 31 30 29 28 27 25 23 21 20 18 16 14 13 11 10 9 8 7 7 7 7 7
4 2 3 2 3 0 5 5 4 5 11 27 29 19 7 7 15 6 30 40 39 41 40 37 35 35 33 31 30 28 27 26 24 22 19 17 15 14 13 11 10 9 7 6 6 6 6 5 5
2 4 2 4 3 6 5 3 2 13 22 25 10 27 12 6 17 15 35 41 43 42 40 39 37 36 34 32 30 28 27 24 22 21 19 17 15 13 11 10 9 8 6 5 4 4 4 4 4
3 3 1 3 11 4 4 6 6 12 22 12 17 11 8 15 14 26 45 45 45 43 42 40 38 37 36 33 30 28 25 24 21 20 18 16 14 13 11 9 8 7 6 5 4 3 3 3 3
3 2 1 3 11 3 3 6 9 9 9 21 30 8 6 6 19 30 47 47 46 45 43 40 39 38 36 33 30 27 25 22 21 20 18 16 14 13 12 11 10 8 8 7 5 5 5 4 2
3 2 2 6 16 3 3 10 10 4 16 24 15 14 4 6 11 38 43 46 44 45 43 41 39 38 37 33 30 27 24 22 20 19 17 16 14 14 12 12 12 11 10 9 8 8 7 7 6
5 3 5 5 12 5 3 3 4 5 10 10 28 6 7 8 17 42 44 47 45 43 42 42 41 39 37 34 29 26 23 22 20 18 17 16 15 14 14 14 14 13 12 12 11 11 11 11 10
5 4 3 5 13 6 5 6 8 5 8 23 17 7 15 13 21 35 42 48 46 45 42 42 41 40 38 35 31 27 24 22 20 18 18 17 16 16 16 16 17 16 15 15 15 14 14 14 13
4 2 8 8 8 2 16 4 2 8 13 22 13 22 29 9 20 30 39 46 46 43 41 42 41 40 38 35 33 30 26 23 21 20 19 20 19 19 18 19 19 19 18 18 18 18 18 18 17
5 5 9 5 8 11 22 10 20 11 20 16 27 26 29 10 13 32 41 46 46 45 44 43 42 40 38 36 34 32 29 27 24 22 22 21 20 20 21 22 22 21 21 20 21 21 21 22 20
5 6 3 2 5 7 18 15 19 12 16 9 20 29 30 16 10 20 30 41 47 45 44 42 40 38 37 36 34 34 31 29 26 24 23 22 22 22 24 25 24 23 22 22 24 24 25 24 23
4 4 3 3 13 14 11 23 18 23 33 22 21 26 23 22 18 6 18 30 39 42 42 42 41 38 37 35 35 34 32 30 27 26 24 24 24 24 26 26 26 24 22 22 24 25 26 26 26
3 4 10 12 15 18 22 20 20 37 35 21 21 20 23 23 21 19 16 24 32 40 43 45 41 41 39 38 37 36 34 31 28 26 26 24 27 27 26 25 25 24 22 19 20 23 23 24 23
3 4 10 6 9 10 11 14 17 38 23 25 20 23 21 23 21 18 16 13 32 39 42 46 45 43 45 43 41 38 36 32 29 28 27 26 28 28 25 24 22 20 18 16 15 17 18 19 19
5 4 5 5 8 8 11 13 18 29 31 27 26 23 23 23 21 21 20 21 13 24 38 40 43 49 46 45 41 40 37 32 30 26 25 26 27 28 24 23 20 18 16 15 15 16 17 17 17
4 4 3 5 2 6 13 18 4 8 12 19 19 20 15 19 23 22 24 16 17 16 27 35 43 48 44 44 42 38 33 30 27 23 23 23 24 26 26 25 23 18 19 17 17 17 17 17 17
6 1 2 6 4 4 6 3 5 14 16 18 23 25 29 30 20 14 19 22 20 18 21 25 29 40 45 42 40 34 29 29 29 24 25 23 25 25 28 28 25 20 22 21 20 19 17 17 16
3 3 4 5 6 4 11 8 6 11 8 13 19 24 30 32 33 27 23 17 22 28 24 26 31 32 36 43 39 36 35 33 30 27 29 26 25 25 29 29 26 24 24 26 23 22 18 18 15
3 3 4 5 6 7 11 17 9 9 8 11 17 22 25 29 31 29 30 20 19 21 29 29 29 34 37 39 40 34 33 26 27 35 34 32 27 25 29 30 27 26 28 28 25 23 19 18 17
2 3 1 4 4 5 9 22 15 5 6 9 16 19 23 29 29 32 30 27 22 22 23 32 34 31 43 43 39 38 36 37 43 44 37 35 29 27 30 29 30 27 27 28 28 24 21 19 19
1 3 2 3 5 4 6 15 8 2 5 16 15 16 26 32 36 38 38 35 29 26 23 26 34 37 43 46 45 46 46 46 47 44 39 35 31 29 30 32 31 27 25 23 25 24 22 19 19
3 2 2 6 6 5 4 13 8 5 8 5 16 23 27 28 33 33 35 34 33 32 27 29 27 37 41 42 55 57 55 53 48 47 40 36 28 27 32 29 24 24 19 21 23 23 21 20 21
4 3 3 2 4 4 2 5 13 15 17 9 9 21 16 18 23 28 31 35 36 37 34 29 26 32 36 35 39 48 51 53 51 45 39 29 27 29 30 29 24 21 19 21 21 22 22 21 21
3 3 5 4 2 2 8 7 13 1 3 6 7 19 16 19 21 25 30 32 37 38 38 34 31 30 37 37 36 43 48 52 52 41 34 28 29 29 27 26 23 19 20 20 21 21 19 18 19
6 5 4 4 2 5 3 3 12 15 15 6 5 16 20 21 24 27 29 33 38 38 38 38 36 30 32 41 41 41 48 49 45 40 35 32 30 28 27 25 21 20 21 20 21 18 19 16 17
5 6 4 4 3 10 9 7 7 5 6 6 13 17 23 28 31 32 32 31 34 37 41 41 40 33 30 37 40 38 42 46 41 39 35 31 29 24 23 21 19 20 19 20 20 21 19 19 18
2 3 5 4 4 2 5 9 9 16 7 8 11 17 26 32 38 40 39 34 32 32 37 41 42 34 31 33 36 33 39 42 40 35 32 32 28 23 20 19 21 20 19 18 21 19 19 18 17
6 4 1 2 3 4 5 7 10 10 14 7 10 17 27 34 39 43 42 33 28 31 29 35 41 34 34 38 40 40 42 39 34 31 33 31 29 23 20 21 23 21 17 23 19 18 16 17 15
2 1 2 2 4 3 4 5 5 10 10 9 12 23 27 34 33 38 38 27 28 29 17 18 30 34 36 40 44 42 38 34 30 32 32 28 28 23 21 24 24 22 19 23 21 20 18 16 13
4 6 6 4 5 3 4 19 9 8 8 10 17 24 26 25 34 39 39 30 28 25 18 15 12 21 35 37 46 43 38 35 32 26 26 23 26 23 23 25 25 21 21 24 21 20 18 14 14
Wind_Direction
345 297 216 173 50 62 242 256 276 322 331 300 312 267 226 238 189 197 168 173 167 161 158 159 158 155 156 155 152 151 150 149 148 147 147 144 144 142 136 133 128 125 123 118 109 104 100 98 99
330 188 235 117 108 166 265 252 306 261 288 309 314 318 241 228 188 166 156 170 168 164 160 162 160 158 159 159 157 157 157 155 153 153 153 152 152 149 148 147 145 143 143 138 134 133 121 119 117
90 182 254 118 169 204 225 236 43 299 317 307 297 315 269 228 199 181 169 168 170 167 164 163 164 162 163 165 162 164 163 162 162 163 163 164 164 164 165 166 164 161 163 164 159 149 140 136 137
139 156 360 106 245 254 212 297 327 327 330 337 310 308 285 251 214 180 168 171 171 169 168 168 166 167 169 169 168 168 169 170 173 174 175 175 176 178 182 186 188 184 192 203 192 196 206 180 171
218 151 84 280 263 250 257 276 305 300 283 303 317 280 274 228 180 173 171 171 172 172 170 171 171 172 173 174 173 173 176 180 183 184 185 185 188 192 196 200 208 209 214 224 231 241 248 261 242
193 160 110 240 254 305 299 280 288 267 304 318 329 324 328 237 211 174 173 174 176 174 171 175 176 177 177 180 181 179 182 188 192 196 197 198 202 209 212 217 222 225 228 236 240 249 255 265 269
181 141 216 247 266 295 249 253 267 282 316 335 333 285 299 246 211 174 177 177 179 179 175 178 182 182 183 185 188 188 190 196 200 206 212 215 216 222 228 233 235 237 240 244 247 252 257 261 267
209 126 238 237 258 276 248 344 299 329 308 325 347 359 341 301 207 191 184 182 182 182 181 183 186 187 188 190 193 197 198 203 210 215 224 229 232 234 237 243 245 246 246 250 253 254 257 261 264
187 134 221 232 249 281 298 315 266 318 312 322 331 347 354 296 208 197 188 185 186 184 186 189 190 192 193 194 197 201 205 209 214 222 229 235 239 242 248 252 254 255 254 256 257 259 260 261 262
180 197 210 209 236 311 294 306 314 334 324 313 322 328 349 339 214 199 192 190 188 189 192 194 195 196 197 199 203 204 207 212 215 222 231 238 243 248 254 257 257 258 259 261 261 263 263 261 261
205 231 149 241 261 279 283 297 301 312 292 303 314 319 329 333 216 214 205 202 196 196 196 198 200 201 204 205 207 211 211 215 220 226 232 242 247 251 255 259 259 261 264 266 267 269 267 267 267
260 247 246 266 276 281 272 296 285 282 267 292 294 304 310 306 299 215 230 222 211 207 206 206 204 206 211 213 217 220 219 221 224 230 235 243 251 255 259 263 266 267 269 271 274 275 273 271 270
223 277 286 294 284 275 281 275 283 275 272 289 299 294 291 291 290 286 260 256 239 223 218 211 210 212 216 220 221 225 226 228 232 236 242 250 256 258 262 268 269 270 269 271 277 277 275 272 272
311 281 292 294 286 263 255 265 263 271 299 303 296 292 287 281 285 276 268 296 235 237 232 221 217 218 220 222 225 228 230 232 237 242 248 251 257 262 265 267 266 267 270 270 275 277 277 271 267
297 325 326 230 232 223 247 263 247 270 292 294 292 292 288 290 284 273 278 279 282 245 244 236 227 227 223 225 227 229 231 237 240 242 247 251 257 264 268 268 264 268 271 271 274 273 270 261 256
8 49 8 284 238 251 193 251 305 347 331 319 339 320 321 300 293 291 278 264 263 262 252 244 245 239 232 229 229 231 231 229 233 235 249 252 262 268 272 271 271 273 274 273 276 272 270 262 254
14 345 282 301 285 268 188 313 332 322 326 317 325 325 324 320 316 323 299 288 266 268 253 240 242 238 236 233 229 224 223 234 242 241 246 255 264 267 269 274 278 279 278 276 275 270 269 266 256
291 324 298 283 308 309 294 274 260 285 283 296 309 320 323 322 319 323 323 319 287 264 249 245 252 249 237 230 225 225 235 243 244 246 252 257 262 263 264 270 277 281 280 275 271 268 267 269 260
234 220 230 275 323 344 296 301 305 279 274 287 301 315 316 315 318 325 327 323 320 288 246 241 249 251 237 224 223 229 228 241 267 251 252 261 262 261 263 267 273 278 281 281 275 265 260 261 253
184 193 272 277 311 323 307 297 298 267 259 283 305 313 317 318 321 321 321 318 311 314 282 253 243 241 236 233 226 231 239 239 239 245 253 259 258 260 262 267 270 277 276 274 268 258 254 253 245
223 124 284 264 305 260 299 283 248 300 306 305 300 314 311 308 312 311 312 311 302 300 300 288 254 246 233 229 232 236 242 242 237 241 249 251 248 255 263 269 272 268 266 265 265 257 252 249 243
304 22 30 344 18 305 62 293 262 234 263 297 302 295 293 295 306 307 307 303 297 290 292 299 271 254 238 238 240 245 245 238 240 242 246 247 253 259 265 266 265 256 257 262 257 250 247 242 240
242 352 337 287 299 301 169 273 262 316 292 263 263 294 315 308 304 303 302 302 298 293 288 292 293 260 234 244 240 244 239 238 240 242 244 248 255 259 263 262 259 250 254 255 247 242 243 234 234
26 349 2 21 58 294 220 205 296 173 333 319 300 303 308 313 310 306 301 300 295 291 286 282 283 275 247 244 239 237 239 239 240 238 241 245 254 259 265 260 251 246 250 247 244 245 232 227 230
57 53 337 338 346 237 299 305 263 301 298 285 280 301 302 307 311 309 308 307 298 292 286 277 280 277 248 246 246 242 235 237 238 235 238 249 253 260 262 255 244 241 249 244 242 219 221 222 228
257 159 163 263 237 285 293 245 253 234 228 271 274 286 301 310 314 313 313 310 302 292 287 276 274 276 251 246 241 232 228 231 233 238 245 253 257 263 263 253 241 240 242 242 207 216 220 218 226
243 188 207 214 250 251 229 267 285 275 242 281 290 305 302 319 323 317 313 309 306 293 279 271 269 265 247 242 229 220 220 230 236 245 254 255 252 254 251 242 235 235 241 219 207 214 210 218 223
169 181 232 16 272 256 270 263 247 294 284 284 306 298 307 317 317 311 309 306 315 312 294 265 259 248 239 231 230 222 226 233 245 246 250 252 245 245 237 230 228 232 231 207 209 209 206 216 221
266 277 88 151 155 221 294 252 226 256 277 269 280 288 303 312 320 318 311 294 326 332 332 289 253 241 236 231 231 230 230 239 240 245 251 249 238 236 227 226 226 224 223 200 209 205 211 216 228
186 211 168 141 269 235 275 276 249 259 260 259 270 281 307 320 335 333 322 283 310 330 340 360 308 248 240 233 232 230 237 232 238 238 238 234 227 228 226 218 222 215 201 206 206 204 211 223 232